{"data":{"norad_id":67023,"intl_designator":"2025-293W","name":"STARLINK-36191","alt_names":[],"object_type":"PAYLOAD","status":"ACTIVE","operator":null,"country":"US","launch_date":"2025-12-10","launch_site_code":"AFWTR","launch_vehicle":null,"mission":null,"orbit_class":"UNKNOWN","rcs_meters":null,"size_class":null,"mass_kg":null,"dimensions":null,"purposes":["comms"],"wikipedia_slug":null,"has_3d_model":false,"image_url":null,"decayed_at":null,"tle_current":{"epoch":"2026-05-25T01:26:40.157664Z","epoch_age_seconds":69757,"freshness":"FRESH","line1":"1 67023U 25293W   26145.06018701  .00003169  00000+0  27321-3 0  9996","line2":"2 67023  70.0006 262.0443 0003176 269.0938  90.9858 14.98335231 26329","mean_motion":14.98335231,"eccentricity":0.0003176,"inclination_deg":70.0006,"raan_deg":262.0443,"arg_perigee_deg":269.0938,"mean_anomaly_deg":90.9858,"bstar":0.00027321,"rev_number":2632,"period_min":96.106663596166,"perigee_km":569.83233843094,"apogee_km":574.24709068003,"semimajor_km":6950.1767145555,"source":"CELESTRAK","updated_at":"2026-05-25T13:38:21.433869Z"}}}